CZ-6A DEB, 54941

Orbit data source: Space-Track

CZ-6A DEB, 54941 is space debris in SSO originally from a launch on Fri, 11 Nov 2022 UTC launched from the Taiyaun Space Center, China (TSC). Debris objects in space refer to the collection of defunct objects orbiting the Earth. Examples of debris include non-operational satellites, rocket bodies, and fragments generated from explosions, collisions, or faulty payload assembly.

Loading next visibility...
Identifier
54941, 2022-151SE
Orbit
SSO
Country
Flag of CNCN / PRC
Related business
Manufacturer
SAST
Mission
Spacecraft
Bus & Motor
Unknown
Mass
Unknown
Launch date (UTC)
2022-11-11 (4 years ago)
Launch vehicle
Unknown
Launch site
Taiyaun Space Center, China (TSC)
Object type
Payload
Rocket body
Debris
Shape & HBR
Unknown shape, 0.1 m
Radar Cross Section
Small (<0.1 m²)

Expand to show TLE details & history
Last TLE update: 2 days ago

TLE from 2 days ago
0 CZ-6A DEB
1 54941U 22151SE  26171.31874657  .00005295  00000-0  19089-2 0  9992
2 54941  98.7961 190.6738 0032619 259.5628 100.1879 14.33784738184644
Epoch: 2026-06-20T07:38Z
TLE epoch observation values (Epoch: 2026-06-20T07:38:59.703Z)
Latitude
-0.00005°
Longitude
167.38996°
Altitude
786.242 km
Speed
7.458 km/s
True Right ascension
12h 42m 41s
True Declination
0° 00' 00"
Sunlit
Object was in daylight at epoch
Visualization orbit readout
Latitude
Unknown
Longitude
Unknown
Altitude
Unknown
Speed
Unknown
Apparent Right ascension
Unknown
Apparent Declination
Unknown
Sunlit
N/A
Visualization observer readout
Local Sidereal Time
21:25:56
Azimuth
Unknown
Elevation
Unknown
Doppler factor
Unknown
Orbital elements
Apogee altitude
799.589 km
Perigee altitude
752.915 km
Semi-major axis
7,154.389 km
Eccentricity
0.00326
Inclination
98.7961°
RAAN
190.6738°
Arg. of periapsis
259.5628°
True anomaly
100.55553°
Mean anomaly
100.1879°
Eccentric anomaly
100.37174°
Mean motion
3.58661 °/min
Orbital period
100.37 mins
BSTAR
0.0019089
Loading maneuver chart data...
Computing Atmospheric mass density...
Loading historical data...
Loading historical data...
Loading historical data...
Loading historical data...
Loading historical data...
Loading historical data...
Loading historical data...

Documentation

Showing up to 5 results
|